Location: Stuttgart
(48.7824°N, 9.1964°E)
Time: 11:41:42
(UTC+01:00)

ISS - Pass Details

Date: 31 January 2019
Orbit: 403 x 411 km, 51.6° (Epoch: 18 February)

Event Time Altitude Azimuth Distance (km) Brightness Sun altitude
Rises 19:46:03 0° 286° (WNW) 2,339 1.3 -24.3°
Reaches altitude 10° 19:48:09 10° 290° (WNW) 1,478 0.0 -24.6°
Enters shadow 19:49:58 29° 303° (WNW) 793 -1.9 -24.9°
